Inquirer Daily News

Weather

Get conditions and forecasts for any City, State, ZIP code or Country:  
Trenton, NJ
on Sunday, January 6, 2013

Sunday
Previous Day Next Day
Daily Summary
 ActualAverageRecord
Temperature
Mean Temperature °F 31°F  
Max Temperature 47°F 39°F 72°F (2007)
Min Temperature 31°F 23°F 5°F (1904)
Degree Days
Heating Degree Days 26 34  
Month to date heating degree days 192 203  
Since 1 July heating degree days 1950 2098  
Cooling Degree Days 0 0  
Month to date cooling degree days 0 0  
Year to date cooling degree days 0 0  
Moisture
Dew Point 28°F   
Average Humidity 66    
Maximum Humidity 89    
Minimum Humidity 42    
Precipitation
Precipitation 0.01 in 0.12 in 1.66 in (1962)
Month to date precipitation 0.01 0.69  
Year to date precipitation 0.01 0.69  
Wind
Wind Speed 5 mph   
Max Wind Speed 13 mph   
Max Gust Speed 17 mph   
Visibility 6 miles   
Events Snow   

Key: T is trace of precipitation, MM is missing value
Source: NWS Daily Summary
Time(EST)TemperatureDew PointHumidity Pressure Visibility Wind DirectionWind SpeedGust SpeedPrecipitationEvents Conditions
12:53 AM 32.0°F 24.1°F 73% 30.21 in 7.0 miles Calm Calm - N/A   Overcast
1:53 AM 33.1°F 24.1°F 70% 30.19 in 8.0 miles SSW 4.6 mph - N/A   Overcast
2:53 AM 33.1°F 24.1°F 70% 30.18 in 8.0 miles Calm Calm - N/A   Overcast
3:26 AM 32.0°F 26.6°F 80% 30.18 in 2.5 miles SSW 6.9 mph - 0.00 in Snow Light Snow
3:33 AM 32.0°F 26.6°F 80% 30.18 in 2.0 miles SW 5.8 mph - 0.00 in Snow Light Snow
3:40 AM 30.2°F 26.6°F 86% 30.16 in 1.5 miles SW 3.5 mph - 0.00 in Snow Light Snow
3:53 AM 30.9°F 28.0°F 89% 30.14 in 1.2 miles South 3.5 mph - 0.00 in Snow Light Snow
4:33 AM 30.2°F 28.4°F 93% 30.13 in 1.5 miles Calm Calm - 0.01 in Snow Light Snow
4:44 AM 30.2°F 30.2°F 100% 30.13 in 1.8 miles Calm Calm - 0.01 in Snow Light Snow
4:53 AM 32.0°F 30.0°F 92% 30.12 in 2.0 miles SSW 3.5 mph - 0.01 in   Overcast
5:53 AM 33.1°F 30.9°F 92% 30.11 in 2.5 miles SW 5.8 mph - N/A   Overcast
6:02 AM 33.8°F 30.2°F 87% 30.12 in 3.0 miles WSW 4.6 mph - N/A   Overcast
6:53 AM 33.1°F 30.9°F 92% 30.12 in 3.0 miles WSW 3.5 mph - N/A   Overcast
7:27 AM 33.8°F 30.2°F 87% 30.12 in 3.0 miles WSW 3.5 mph - N/A   Overcast
7:42 AM 33.8°F 30.2°F 87% 30.12 in 2.5 miles WSW 4.6 mph - N/A   Overcast
7:53 AM 33.1°F 30.9°F 92% 30.12 in 2.5 miles WSW 3.5 mph - N/A   Overcast
8:53 AM 35.1°F 32.0°F 89% 30.11 in 5.0 miles West 4.6 mph - N/A   Mostly Cloudy
9:04 AM 35.6°F 30.2°F 81% 30.11 in 5.0 miles West 6.9 mph - N/A   Scattered Clouds
9:53 AM 37.0°F 32.0°F 82% 30.10 in 6.0 miles West 5.8 mph - N/A   Haze
10:53 AM 39.9°F 32.0°F 73% 30.08 in 8.0 miles West 6.9 mph - N/A   Clear
11:53 AM 43.0°F 30.0°F 60% 30.04 in 10.0 miles WNW 8.1 mph - N/A   Clear
12:53 PM 45.0°F 28.0°F 52% 30.02 in 10.0 miles WNW 5.8 mph - N/A   Clear
1:53 PM 46.0°F 26.1°F 46% 29.99 in 10.0 miles WNW 9.2 mph - N/A   Clear
2:53 PM 46.0°F 26.1°F 46% 29.98 in 10.0 miles West 8.1 mph - N/A   Clear
3:53 PM 46.0°F 25.0°F 44% 29.98 in 10.0 miles West 8.1 mph - N/A   Partly Cloudy
4:53 PM 44.1°F 24.1°F 45% 29.99 in 10.0 miles WNW 5.8 mph - N/A   Scattered Clouds
5:53 PM 42.1°F 25.0°F 51% 30.00 in 10.0 miles NW 4.6 mph - N/A   Overcast
6:53 PM 41.0°F 26.1°F 55% 30.01 in 10.0 miles Calm Calm - N/A   Overcast
7:53 PM 39.9°F 26.1°F 58% 30.02 in 10.0 miles NW 3.5 mph - N/A   Overcast
8:53 PM 42.1°F 26.1°F 53% 30.02 in 10.0 miles NW 5.8 mph - N/A   Overcast
9:53 PM 41.0°F 26.1°F 55% 30.04 in 10.0 miles WNW 3.5 mph - N/A   Overcast
10:53 PM 41.0°F 26.1°F 55% 30.05 in 10.0 miles WNW 3.5 mph - N/A   Overcast
11:53 PM 39.9°F 26.1°F 58% 30.06 in 10.0 miles WNW 5.8 mph - N/A   Scattered Clouds
Astronomy
Sunrise:07:22 AM (EST) Moon Rise:01:33 AM (EST)1/6
Sunset:04:48 PM (EST) Moon Set:12:14 PM (EST)1/6
Moon Phase
Jan. 06 Jan. 11 Jan. 18 Jan. 26 Feb. 03

Copyright © 2014 The Weather Underground, Inc.